Regional Weather Roundup
Issued by NWS Northern Indiana

Home | Current Version | Previous Version | Text Only | Print | Product List | Glossary Off
Versions: 1 2 3 4 5 6 7 8 9 10 11 12 13 14 15 16 17 18 19 20 21 22 23 24 25 26 27 28 29 30 31 32 33 34 35 36 37 38 39 40 41 42 43 44 45 46 47 48 49 50

000
ASUS43 KIWX 310210
RWRIWX

KIWX WEATHER ROUNDUP
NATIONAL WEATHER SERVICE NORTHERN INDIANA
1000 PM EDT WED JUL 30 2014

NOTE: "FAIR" INDICATES FEW OR NO CLOUDS BELOW 12,000 FEET WITH NO
SIGNIFICANT WEATHER AND/OR OBSTRUCTIONS TO VISIBILITY.

* THESE STATIONS ARE NOT UNDER NWS QUALITY CONTROL. THEY ALSO MAY NOT
  REPORT WEATHER SUCH AS PRECIPITATION OR FOG.

INZ001>027-310300-
NORTHERN INDIANA

CITY           SKY/WX    TMP DP  RH WIND       PRES   REMARKS
GARY*          PTCLDY    63  59  88 CALM      30.03R
VALPARAISO     CLEAR     62  57  83 CALM      30.04R
MICHIGAN CITY* CLEAR     59  59 100 CALM      30.04R FOG
LAPORTE*       PTCLDY    60  56  84 CALM      30.04R
KNOX*          PTCLDY    61  57  85 CALM      30.02R
SOUTH BEND     CLEAR     63  56  78 N3        30.04R
GOSHEN         CLEAR     65  56  72 CALM      30.02R
MONTICELLO*    CLEAR     66  61  84 W3        30.02R
LOGANSPORT*    CLEAR     64  57  77 CALM      30.03S
ROCHESTER*     PTCLDY    64  64 100 CALM      30.04R FOG
WARSAW*        MOCLDY    66  55  68 CALM      30.03R
ANGOLA*        CLEAR     64  57  77 CALM      30.02S
FORT WAYNE     PTCLDY    66  60  81 W5        30.03R
HUNTINGTON*    CLOUDY    65  62  90 CALM      30.03R
PERU/GRISSOM   CLEAR     69  63  82 NW1       30.03R
MARION*        PTCLDY    64  60  87 NW3       30.04R

$$
INZ028>050-310300-
CENTRAL INDIANA

CITY           SKY/WX    TMP DP  RH WIND       PRES   REMARKS
LAFAYETTE      CLEAR     67  61  81 CALM      30.03R
KOKOMO*        CLEAR     68  59  73 W7        30.04R
MUNCIE*        CLEAR     68  59  73 SW8       30.04R
INDIANAPOLIS   MOCLDY    66  62  87 SW7       30.04R

$$
MIZ043>046-050>051-056>058-064>065-071>073-077>080-310300-
SOUTHWEST LOWER MICHIGAN

CITY           SKY/WX    TMP DP  RH WIND       PRES   REMARKS
BATTLE CREEK   PTCLDY    62  55  77 W6        30.03R
BENTON HARBOR  CLEAR     55  54  96 CALM      30.03R
COLDWATER*     CLEAR     63  57  80 W5        30.02R
HILLSDALE*     CLEAR     63  58  84 W3        30.02R
HOLLAND        CLEAR     56  52  86 W3        30.03R
GRAND RAPIDS   PTCLDY    66  49  54 W7        30.02R
KALAMAZOO      PTCLDY    61  54  77 NW6       30.03R
STURGIS*       CLEAR     61  57  88 CALM      30.03R
THREE RIVERS*  FAIR      64  59  85 CALM      30.03R

$$
OHZ001>008-015>018-024>025-310300-
NORTHWEST OHIO

CITY           SKY/WX    TMP DP  RH WIND       PRES   REMARKS
WAUSEON*       FAIR      61  57  88 CALM      30.01R
DEFIANCE       CLEAR     67  55  65 CALM      30.02R
FINDLAY        CLEAR     66  57  72 SW3       30.01R
TOLEDO EXPRESS PTCLDY    60  55  83 E5        30.01R
TOLEDO METCALF MOCLDY    64  59  83 CALM      30.02R
LIMA           CLEAR     66  59  78 W3        30.03R

$$
&&



USA.gov is the U.S. government's official web portal to all federal, state and local government web resources and services.